DW5212 Weather Reports


time (UTC)temp
F
wind
direction
speed
knots
gust
knots
rain 1hr
in
rain 24hr
in
rain mn
in
humidity
%
barometer
mb
20260507094006 56 234 0.0 0.0 0.00 0.00 0.00 91 1015.1
20260507093506 56 355 0.0 0.0 0.00 0.00 0.00 91 1015.0
20260507093008 56 341 0.0 0.0 0.00 0.00 0.00 91 1014.9
20260507092506 56 348 0.0 0.0 0.00 0.00 0.00 91 1015.0
20260507092007 56 348 0.0 0.0 0.00 0.00 0.00 91 1015.1
20260507091506 56 348 0.0 0.0 0.00 0.00 0.00 91 1015.3
20260507091007 56 234 0.0 0.0 0.00 0.00 0.00 91 1015.2
20260507090506 56 18 0.0 0.9 0.00 0.00 0.00 91 1015.0
20260507090009 57 18 0.9 1.7 0.00 0.00 0.00 91 1014.9
20260507085506 57 18 0.9 1.7 0.00 0.00 0.00 91 1015.0
20260507084506 57 18 0.9 2.6 0.00 0.00 0.00 91 1015.1
20260507084007 57 342 0.9 2.6 0.00 0.00 0.00 91 1015.2
20260507083505 57 21 0.0 1.7 0.00 0.00 0.00 91 1014.8
20260507083007 57 45 0.0 1.7 0.00 0.00 0.00 91 1015.0
20260507082507 57 93 0.0 0.0 0.00 0.00 0.00 91 1014.9
20260507082006 57 13 0.0 0.0 0.00 0.00 0.00 91 1015.1
20260507081506 57 5 0.0 0.0 0.00 0.00 0.00 91 1015.1
20260507081006 57 12 0.0 1.7 0.00 0.00 0.00 91 1015.0
20260507080506 57 12 0.9 3.5 0.00 0.00 0.00 91 1015.0
20260507080010 57 12 0.0 3.5 0.00 0.00 0.00 91 1014.7
20260507075507 57 34 0.0 0.0 0.00 0.00 0.00 91 1014.7
20260507074508 57 35 0.0 0.0 0.00 0.00 0.00 91 1014.8
20260507074008 57 17 0.0 0.0 0.00 0.00 0.00 91 1014.6
20260507073506 57 17 0.0 0.0 0.00 0.00 0.00 91 1014.4
20260507073008 57 18 0.9 2.6 0.00 0.00 0.00 91 1014.5
20260507071507 57 76 0.0 0.0 0.00 0.00 0.00 90 1014.9
20260507071008 57 78 0.0 0.0 0.00 0.00 0.00 90 1014.9
20260507070506 58 5 0.9 1.7 0.00 0.00 0.00 90 1015.2
20260507070013 58 5 0.9 2.6 0.00 0.00 0.00 90 1015.4
20260507065507 58 12 0.9 3.5 0.00 0.00 0.00 90 1015.2
20260507065006 58 18 0.0 3.5 0.00 0.00 0.00 90 1015.2
20260507064508 58 21 0.0 0.0 0.00 0.00 0.00 90 1015.1
20260507063009 58 26 0.0 0.0 0.00 0.00 0.00 90 1014.8
20260507061506 58 9 0.9 2.6 0.00 0.00 0.00 90 1014.9
20260507061007 58 5 0.9 2.6 0.00 0.00 0.00 90 1015.1
20260507060506 58 23 0.9 2.6 0.00 0.00 0.00 90 1015.2
20260507055508 59 284 0.9 2.6 0.00 0.00 0.00 90 1014.9
20260507055009 59 355 0.9 2.6 0.00 0.00 0.00 90 1014.7
20260507054509 59 22 1.7 2.6 0.00 0.00 0.00 90 1014.4
20260507054009 59 22 0.9 3.5 0.00 0.00 0.00 90 1014.6
20260507053509 59 5 0.0 3.5 0.00 0.00 0.00 90 1014.6
20260507053009 59 45 0.0 1.7 0.00 0.00 0.00 90 1014.5
20260507052507 59 21 0.9 2.6 0.00 0.00 0.00 90 1014.7
20260507052008 59 22 0.9 3.5 0.00 0.00 0.00 90 1014.7
20260507051010 59 167 0.9 3.5 0.00 0.00 0.00 90 1014.4
20260507050508 59 23 0.9 2.6 0.00 0.00 0.00 90 1014.3
20260507050015 59 40 0.9 2.6 0.00 0.00 0.00 90 1014.2
20260507045509 59 22 0.9 4.3 0.00 0.00 0.00 90 1014.1
20260507045009 59 286 0.9 4.3 0.00 0.00 0.00 90 1013.9
20260507044509 60 19 0.0 4.3 0.00 0.00 0.00 90 1013.7
20260507044009 60 22 0.9 2.6 0.00 0.00 0.00 90 1013.7
20260507042509 60 10 0.9 2.6 0.00 0.00 0.00 90 1013.8
20260507042010 61 13 0.9 3.5 0.00 0.00 0.00 90 1013.8
20260507041511 61 16 0.9 3.5 0.00 0.00 0.00 90 1013.8
20260507041009 61 17 0.9 2.6 0.00 0.00 0.00 90 1013.9
20260507040510 61 17 0.9 3.5 0.00 0.00 0.00 90 1013.9
20260507040011 61 17 0.9 3.5 0.00 0.00 0.00 90 1013.8
20260507035508 61 9 0.9 3.5 0.00 0.00 0.00 90 1013.8
20260507035008 61 19 1.7 3.5 0.00 0.00 0.00 90 1013.8
20260507034509 61 19 0.9 3.5 0.00 0.00 0.00 90 1013.7
20260507034009 61 30 0.0 2.6 0.00 0.00 0.00 90 1013.6
20260507033508 61 15 0.0 2.6 0.00 0.00 0.00 90 1013.5
20260507033011 61 15 0.0 2.6 0.00 0.00 0.00 90 1013.4
20260507032508 62 18 0.0 1.7 0.00 0.00 0.00 90 1013.4
20260507031508 62 18 0.9 3.5 0.00 0.00 0.00 90 1013.1
20260507030507 62 360 0.9 2.6 0.00 0.00 0.00 91 1013.0
20260507025507 62 9 1.7 3.5 0.00 0.00 0.00 91 1012.9
20260507025008 62 40 1.7 3.5 0.00 0.00 0.00 90 1012.9
20260507024508 62 37 1.7 3.5 0.00 0.00 0.00 90 1012.9
20260507024009 62 19 1.7 4.3 0.00 0.00 0.00 90 1012.8
20260507023509 63 23 1.7 4.3 0.00 0.00 0.00 90 1012.8
20260507023012 63 5 0.9 2.6 0.00 0.00 0.00 90 1012.9
20260507022509 63 333 0.0 1.7 0.00 0.00 0.00 90 1012.7
20260507022009 63 19 0.9 2.6 0.00 0.00 0.00 90 1013.0
20260507021509 63 28 1.7 4.3 0.00 0.00 0.00 90 1012.7
20260507021010 63 13 1.7 4.3 0.00 0.00 0.00 90 1012.3
20260507020509 63 19 0.9 2.6 0.00 0.00 0.00 90 1012.3
20260507020011 64 9 0.9 3.5 0.00 0.00 0.00 90 1012.3
20260507015508 64 13 0.9 3.5 0.00 0.00 0.00 90 1012.2
20260507014508 64 13 0.9 4.3 0.00 0.00 0.00 90 1011.8
20260507014008 64 17 0.9 2.6 0.00 0.00 0.00 90 1011.9
20260507013508 65 18 0.9 3.5 0.00 0.00 0.00 90 1011.5
20260507013009 65 5 0.9 3.5 0.00 0.00 0.00 90 1011.4
20260507011009 65 30 1.7 3.5 0.00 0.00 0.00 90 1010.6
20260507010506 66 23 1.7 3.5 0.00 0.00 0.00 90 1010.2
20260507010009 66 19 1.7 3.5 0.00 0.00 0.00 90 1010.2
20260507005009 66 32 0.9 3.5 0.00 0.00 0.00 90 1010.3
20260507004507 66 24 0.0 0.0 0.00 0.00 0.00 90 1010.2
20260507004008 67 26 0.9 1.7 0.00 0.00 0.00 90 1010.6
20260507003508 67 28 0.9 3.5 0.00 0.00 0.00 89 1010.5
20260507003010 67 22 0.9 3.5 0.00 0.00 0.00 89 1010.4
20260507002508 68 33 1.7 4.3 0.00 0.00 0.00 88 1010.2
20260507001509 69 39 2.6 7.0 0.00 0.00 0.00 88 1009.7
20260507001010 69 20 2.6 7.0 0.00 0.00 0.00 88 1009.6
20260507000512 70 23 1.7 3.5 0.00 0.00 0.00 87 1010.0
20260507000011 71 32 2.6 5.2 0.00 0.00 0.00 87 1009.8
20260506235512 72 33 2.6 5.2 0.00 0.00 0.00 86 1009.6
20260506235007 73 22 1.7 5.2 0.00 0.00 0.00 85 1009.7
20260506234508 74 345 1.7 4.3 0.00 0.00 0.00 85 1009.6
20260506234008 76 15 0.9 4.3 0.00 0.00 0.00 86 1009.7
20260506233507 77 9 0.0 3.5 0.00 0.00 0.00 91 1009.4
20260506233008 77 233 0.0 0.0 0.00 0.00 0.00 91 1009.3
20260506232507 77 229 0.0 0.0 0.00 0.00 0.00 91 1009.3
20260506232008 77 229 0.0 0.0 0.00 0.00 0.00 90 1009.4
20260506231507 77 229 0.0 0.0 0.00 0.00 0.00 90 1009.2
20260506231007 77 229 0.0 0.0 0.00 0.00 0.00 90 1009.1
20260506230506 77 229 0.0 0.0 0.00 0.00 0.00 89 1009.0
20260506230008 77 229 0.0 0.0 0.00 0.00 0.00 89 1009.1
20260506225506 77 229 0.0 0.0 0.00 0.00 0.00 89 1008.8
20260506225009 78 229 0.0 0.0 0.00 0.00 0.00 89 1008.9
20260506224008 78 229 0.0 0.0 0.00 0.00 0.00 89 1008.8
20260506223506 78 230 0.0 0.0 0.00 0.00 0.00 89 1008.8
20260506223009 78 230 0.0 0.0 0.00 0.00 0.00 89 1008.8
20260506222007 78 226 0.0 0.0 0.00 0.00 0.00 89 1008.6
20260506221008 78 237 0.0 0.0 0.00 0.00 0.00 88 1008.8
20260506220506 78 239 0.0 0.0 0.00 0.00 0.00 88 1008.9
20260506220010 78 239 0.0 0.0 0.00 0.00 0.00 88 1009.0
20260506215007 78 242 0.0 0.0 0.00 0.00 0.00 88 1009.0
20260506214507 78 242 0.0 0.9 0.00 0.00 0.00 88 1009.1
20260506213506 79 242 0.9 1.7 0.00 0.00 0.00 87 1009.1
20260506213010 79 243 0.9 3.5 0.00 0.00 0.00 86 1009.0
20260506212507 79 236 0.9 3.5 0.00 0.00 0.00 86 1009.1
20260506211508 79 173 1.7 7.0 0.00 0.00 0.00 87 1008.9
20260506210010 79 242 0.9 2.6 0.00 0.00 0.00 86 1009.1
20260506205009 79 102 0.9 4.3 0.00 0.00 0.00 85 1009.4
20260506204509 79 165 0.9 3.5 0.00 0.00 0.00 85 1009.6
20260506203506 79 86 0.9 2.6 0.00 0.00 0.00 86 1009.2
20260506203011 79 187 1.7 7.0 0.00 0.00 0.00 85 1009.4
20260506202507 79 132 1.7 7.0 0.00 0.00 0.00 85 1009.7
20260506202009 79 213 1.7 5.2 0.00 0.00 0.00 84 1010.0
20260506201008 80 230 0.9 6.1 0.00 0.00 0.00 84 1010.0
20260506200507 80 173 0.0 0.9 0.00 0.00 0.00 84 1009.9
20260506200009 80 173 0.0 2.6 0.00 0.00 0.00 84 1009.9
20260506195507 80 173 0.0 2.6 0.00 0.00 0.00 83 1009.8
20260506195008 81 168 0.0 1.7 0.00 0.00 0.00 82 1009.8
20260506194511 81 180 0.0 1.7 0.00 0.00 0.00 82 1009.6
20260506194008 81 180 0.0 1.7 0.00 0.00 0.00 82 1009.7
20260506193506 81 219 0.0 1.7 0.00 0.00 0.00 81 1009.8
20260506193008 81 218 0.0 0.9 0.00 0.00 0.00 81 1009.9
20260506192008 81 236 0.9 2.6 0.00 0.00 0.00 81 1009.9
20260506191508 81 240 0.9 2.6 0.00 0.00 0.00 81 1009.8
20260506191008 81 157 0.9 2.6 0.00 0.00 0.00 80 1009.8
20260506190506 81 140 0.9 2.6 0.00 0.00 0.00 81 1009.9
20260506185509 81 169 0.9 2.6 0.00 0.00 0.00 82 1010.5
20260506185008 81 232 0.0 2.6 0.00 0.00 0.00 83 1010.7
20260506184008 80 167 0.9 4.3 0.00 0.00 0.00 83 1011.1
20260506183507 80 196 0.9 4.3 0.00 0.00 0.00 83 1011.3
20260506183009 80 99 0.9 4.3 0.00 0.00 0.00 83 1011.2
20260506182506 80 54 0.9 3.5 0.00 0.00 0.00 83 1011.6
20260506182007 81 202 1.7 4.3 0.00 0.00 0.00 83 1011.7
20260506181508 81 81 1.7 4.3 0.00 0.00 0.00 83 1011.7
20260506181008 81 218 0.9 4.3 0.00 0.00 0.00 83 1011.9
20260506180507 81 175 0.9 3.5 0.00 0.00 0.00 83 1012.1
20260506180010 81 220 0.9 5.2 0.00 0.00 0.00 83 1012.2
20260506175508 81 148 2.6 8.7 0.00 0.00 0.00 84 1012.1
20260506174507 80 189 0.9 7.0 0.00 0.00 0.00 84 1012.3
20260506174009 80 244 0.9 5.2 0.00 0.00 0.00 85 1012.2
20260506173507 80 198 1.7 5.2 0.00 0.00 0.00 84 1012.2
20260506173009 79 220 1.7 5.2 0.00 0.00 0.00 85 1012.3
20260506172509 79 223 1.7 5.2 0.00 0.00 0.00 86 1012.2
20260506172007 79 196 0.9 5.2 0.00 0.00 0.00 87 1012.2
20260506171509 78 172 1.7 2.6 0.00 0.00 0.00 86 1012.0
20260506171010 78 255 1.7 7.8 0.00 0.00 0.00 86 1012.1
20260506170508 78 225 1.7 7.8 0.00 0.00 0.00 85 1012.2
20260506170009 79 190 0.9 4.3 0.00 0.00 0.00 85 1012.1
20260506165006 79 221 0.9 6.1 0.00 0.00 0.00 85 1012.3
20260506164506 79 244 1.7 6.1 0.00 0.00 0.00 86 1012.3
20260506164008 79 217 1.7 4.3 0.00 0.00 0.00 86 1012.2
20260506163506 79 262 1.7 6.1 0.00 0.00 0.00 87 1012.3
20260506163010 79 134 1.7 6.1 0.00 0.00 0.00 86 1012.2
20260506162507 78 227 0.9 6.1 0.00 0.00 0.00 87 1012.2
20260506161506 78 229 1.7 5.2 0.00 0.00 0.00 87 1012.3
20260506161008 78 223 1.7 5.2 0.00 0.00 0.00 87 1012.3
20260506160506 78 53 0.9 2.6 0.00 0.00 0.00 88 1012.4
20260506160013 78 257 0.9 5.2 0.00 0.00 0.00 88 1012.4
20260506155508 78 186 1.7 6.1 0.00 0.00 0.00 88 1012.4
20260506155010 78 260 0.9 6.1 0.00 0.00 0.00 88 1012.3
20260506154511 77 182 0.9 2.6 0.00 0.00 0.00 88 1012.3
20260506154008 77 187 0.9 3.5 0.00 0.00 0.00 88 1012.2
20260506153506 77 86 0.9 3.5 0.00 0.00 0.00 87 1012.1
20260506153009 78 257 0.9 4.3 0.00 0.00 0.00 87 1012.0
20260506152507 78 229 0.9 6.1 0.00 0.00 0.00 87 1012.1
20260506152008 78 156 0.9 6.1 0.00 0.00 0.00 87 1011.9
20260506151507 78 225 0.9 5.2 0.00 0.00 0.00 87 1011.9
20260506151009 77 168 1.7 7.8 0.00 0.00 0.00 87 1011.7
20260506150506 77 238 1.7 7.8 0.00 0.00 0.00 88 1011.8
20260506150011 77 191 0.9 6.1 0.00 0.00 0.00 88 1011.7
20260506145507 77 113 0.9 3.5 0.00 0.00 0.00 89 1011.7
20260506145009 77 259 2.6 7.0 0.00 0.00 0.00 89 1011.7
20260506144510 77 232 1.7 7.8 0.00 0.00 0.00 90 1011.7
20260506144007 76 143 0.9 4.3 0.00 0.00 0.00 91 1011.7
20260506143506 76 164 0.9 3.5 0.00 0.00 0.00 91 1011.6
20260506143009 76 86 0.9 2.6 0.00 0.00 0.00 91 1011.7
20260506142008 75 149 0.9 4.3 0.00 0.00 0.00 92 1011.7
20260506141506 75 196 0.9 2.6 0.00 0.00 0.00 92 1011.7
20260506141008 75 253 0.0 1.7 0.00 0.00 0.00 92 1011.7
20260506140507 74 238 0.9 3.5 0.00 0.00 0.00 93 1011.6
20260506140009 74 200 0.0 3.5 0.00 0.00 0.00 93 1011.7
20260506135506 74 188 0.0 0.0 0.00 0.00 0.00 93 1011.6
20260506135007 74 188 0.0 0.0 0.00 0.00 0.00 93 1011.6
20260506134506 73 217 0.0 0.0 0.00 0.00 0.00 94 1011.7
20260506134008 73 161 0.0 0.0 0.00 0.00 0.00 93 1011.6
20260506133506 73 162 0.0 0.0 0.00 0.00 0.00 93 1011.7
20260506133008 73 184 0.0 1.7 0.00 0.00 0.00 93 1011.6
20260506132507 73 184 0.0 1.7 0.00 0.00 0.00 93 1011.6
20260506132007 73 194 0.0 1.7 0.00 0.00 0.00 93 1011.6
20260506131507 73 191 0.0 0.0 0.00 0.00 0.00 93 1011.5
20260506131008 73 192 0.0 0.9 0.00 0.00 0.00 93 1011.5
20260506130506 73 192 0.0 0.9 0.00 0.00 0.00 93 1011.4
20260506125506 73 192 0.0 1.7 0.00 0.00 0.00 93 1011.4
20260506125008 73 258 0.0 1.7 0.00 0.00 0.00 93 1011.4
20260506124008 73 205 0.0 1.7 0.00 0.00 0.00 93 1011.3
20260506123507 72 205 0.0 0.9 0.00 0.00 0.00 93 1011.3
20260506122506 72 223 0.9 2.6 0.00 0.00 0.00 92 1011.0
20260506121007 72 183 0.0 2.6 0.00 0.00 0.00 92 1010.8
20260506120507 72 196 0.0 0.9 0.00 0.00 0.00 92 1010.6
20260506120009 72 196 0.0 0.9 0.00 0.00 0.00 92 1010.8
20260506115507 72 219 0.0 0.0 0.00 0.00 0.00 92 1010.8
20260506115009 72 219 0.0 1.7 0.00 0.00 0.00 92 1010.7
20260506114508 72 219 0.0 1.7 0.00 0.00 0.00 92 1010.6
20260506114006 72 194 0.0 1.7 0.00 0.00 0.00 92 1010.4
20260506111006 72 249 0.0 2.6 0.00 0.00 0.00 91 1010.1
20260506110507 72 236 0.0 0.0 0.00 0.00 0.00 91 1010.1
20260506110007 72 172 0.0 0.0 0.00 0.00 0.00 91 1010.0
20260506105505 72 236 0.0 0.0 0.00 0.00 0.00 91 1010.0
20260506104506 73 236 0.0 1.7 0.00 0.00 0.00 91 1010.1
20260506104006 73 236 0.9 3.5 0.00 0.00 0.00 91 1010.1
20260506103506 73 237 0.9 3.5 0.00 0.00 0.00 91 1009.9
20260506102506 73 229 0.9 3.5 0.00 0.00 0.00 91 1009.9
20260506102008 73 223 0.9 3.5 0.00 0.00 0.00 91 1009.8
20260506101506 73 234 0.9 3.5 0.00 0.00 0.00 90 1009.7
20260506100505 73 176 0.0 2.6 0.00 0.00 0.00 90 1009.9
20260506100008 73 233 0.9 3.5 0.00 0.00 0.00 90 1009.9
20260506095507 73 232 0.9 7.8 0.00 0.00 0.00 90 1009.7
20260506095006 73 285 0.9 3.5 0.00 0.00 0.00 90 1009.6
20260506094506 73 209 0.9 2.6 0.00 0.00 0.00 90 1009.7